ON7XX-13 Weather Reports


time (UTC)temp
F
wind
direction
speed
knots
gust
knots
rain 1hr
in
rain 24hr
in
rain mn
in
humidity
%
barometer
mb
20260506154846 60 0.0 0.0 0.00 0.00 0.00 68 1012.4
20260506153831 60 0.0 0.0 0.00 0.00 0.00 69 1012.3
20260506152817 60 0.0 0.0 0.00 0.00 0.00 70 1012.3
20260506151803 60 0.0 0.0 0.00 0.00 0.00 69 1012.3
20260506145734 59 0.0 0.0 0.00 0.00 0.00 70 1012.3
20260506144719 60 0.0 0.0 0.00 0.00 0.00 70 1012.3
20260506143706 60 0.0 0.0 0.00 0.00 0.00 70 1012.3
20260506142651 60 0.0 0.0 0.00 0.00 0.00 70 1012.2
20260506141637 60 0.0 0.0 0.00 0.00 0.00 70 1012.2
20260506140623 60 0.0 0.0 0.00 0.00 0.00 70 1012.3
20260506135608 60 0.0 0.0 0.00 0.00 0.00 69 1012.2
20260506134554 61 0.0 0.0 0.00 0.00 0.00 68 1012.2
20260506133540 61 0.0 0.0 0.00 0.00 0.00 68 1012.2
20260506132526 60 0.0 0.0 0.00 0.00 0.00 69 1012.3
20260506131511 59 0.0 0.0 0.00 0.00 0.00 69 1012.3
20260506130457 59 0.0 0.0 0.00 0.00 0.00 69 1012.2
20260506125443 59 0.0 0.0 0.00 0.00 0.00 69 1012.1
20260506124429 59 0.0 0.0 0.00 0.00 0.00 69 1012.1
20260506123415 59 0.0 0.0 0.00 0.00 0.00 69 1012.0
20260506122400 59 0.0 0.0 0.00 0.00 0.00 69 1012.0
20260506121346 59 0.0 0.0 0.00 0.00 0.00 69 1012.1
20260506120332 59 0.0 0.0 0.00 0.00 0.00 69 1011.9
20260506115318 59 0.0 0.0 0.00 0.00 0.00 71 1012.0
20260506114304 58 0.0 0.0 0.00 0.00 0.00 69 1012.1
20260506113249 58 0.0 0.0 0.00 0.00 0.00 70 1012.0
20260506112235 58 0.0 0.0 0.00 0.00 0.00 71 1012.0
20260506111220 58 0.0 0.0 0.00 0.00 0.00 71 1012.0
20260506110206 57 0.0 0.0 0.00 0.00 0.00 72 1012.0
20260506105152 57 0.0 0.0 0.00 0.00 0.00 73 1012.0
20260506104138 57 0.0 0.0 0.00 0.00 0.00 73 1012.1
20260506102109 58 0.0 0.0 0.00 0.00 0.00 71 1011.9
20260506101055 58 0.0 0.0 0.00 0.00 0.00 71 1011.9
20260506100041 58 0.0 0.0 0.00 0.00 0.00 72 1011.8
20260506095026 58 0.0 0.0 0.00 0.00 0.00 70 1011.8
20260506094012 57 0.0 0.0 0.00 0.00 0.00 72 1011.7
20260506092958 57 0.0 0.0 0.00 0.00 0.00 72 1011.7
20260506091943 56 0.0 0.0 0.00 0.00 0.00 75 1011.7
20260506090930 56 0.0 0.0 0.00 0.00 0.00 75 1011.6
20260506085915 56 0.0 0.0 0.00 0.00 0.00 74 1011.5
20260506083846 56 0.0 0.0 0.00 0.00 0.00 76 1011.5
20260506082832 55 0.0 0.0 0.00 0.00 0.00 77 1011.4
20260506081818 55 0.0 0.0 0.00 0.00 0.00 79 1011.3
20260506080804 55 0.0 0.0 0.00 0.00 0.00 79 1011.3
20260506072707 54 0.0 0.0 0.00 0.00 0.00 80 1011.2
20260506071653 54 0.0 0.0 0.00 0.00 0.00 80 1011.1
20260506070638 54 0.0 0.0 0.00 0.00 0.00 82 1011.0
20260506061527 51 0.0 0.0 0.00 0.00 0.00 87 1011.1
20260506060513 51 0.0 0.0 0.00 0.00 0.00 87 1011.1
20260506051402 51 0.0 0.0 0.00 0.00 0.00 86 1011.1
20260506050347 51 0.0 0.0 0.00 0.00 0.00 86 1011.0
20260506044319 51 0.0 0.0 0.00 0.00 0.00 87 1011.0
20260506042250 51 0.0 0.0 0.00 0.00 0.00 86 1011.0
20260506041236 51 0.0 0.0 0.00 0.00 0.00 86 1011.0
20260506040221 51 0.0 0.0 0.00 0.00 0.00 86 1011.0
20260506035207 51 0.0 0.0 0.00 0.00 0.00 86 1011.0
20260506034153 51 0.0 0.0 0.00 0.00 0.00 86 1010.9
20260506033139 51 0.0 0.0 0.00 0.00 0.00 86 1011.0
20260506032125 51 0.0 0.0 0.00 0.00 0.00 85 1011.0
20260506031111 51 0.0 0.0 0.00 0.00 0.00 86 1011.0
20260506030056 51 0.0 0.0 0.00 0.00 0.00 86 1011.2
20260506025042 51 0.0 0.0 0.00 0.00 0.00 86 1011.1
20260506024028 51 0.0 0.0 0.00 0.00 0.00 86 1011.0
20260506021959 51 0.0 0.0 0.00 0.00 0.00 86 1011.1
20260506015930 51 0.0 0.0 0.00 0.00 0.00 84 1011.2
20260506014916 51 0.0 0.0 0.00 0.00 0.00 84 1011.2
20260506013902 51 0.0 0.0 0.00 0.00 0.00 83 1011.3
20260506012847 51 0.0 0.0 0.00 0.00 0.00 84 1011.3
20260506011833 52 0.0 0.0 0.00 0.00 0.00 83 1011.3
20260506010819 52 0.0 0.0 0.00 0.00 0.00 84 1011.3
20260506005804 52 0.0 0.0 0.00 0.00 0.00 83 1011.3
20260506004750 52 0.0 0.0 0.00 0.00 0.00 83 1011.3
20260506003736 52 0.0 0.0 0.00 0.00 0.00 84 1011.3
20260506002721 52 0.0 0.0 0.00 0.00 0.00 83 1011.4
20260506001707 52 0.0 0.0 0.00 0.00 0.00 84 1011.5
20260506000653 53 0.0 0.0 0.00 0.00 0.00 83 1011.6
20260505235639 53 0.0 0.0 0.00 0.00 0.00 85 1011.6
20260505234624 53 0.0 0.0 0.00 0.00 0.00 83 1011.7
20260505233610 53 0.0 0.0 0.00 0.00 0.00 83 1011.7
20260505232556 53 0.0 0.0 0.00 0.00 0.00 83 1011.7
20260505231542 53 0.0 0.0 0.00 0.00 0.00 83 1011.7
20260505230528 53 0.0 0.0 0.00 0.00 0.00 82 1011.8
20260505225513 53 0.0 0.0 0.00 0.00 0.00 82 1011.7
20260505224459 53 0.0 0.0 0.00 0.00 0.00 82 1011.7
20260505223445 53 0.0 0.0 0.00 0.00 0.00 82 1011.7
20260505222431 54 0.0 0.0 0.00 0.00 0.00 82 1011.7
20260505221417 54 0.0 0.0 0.00 0.00 0.00 80 1011.7
20260505220402 54 0.0 0.0 0.00 0.00 0.00 81 1011.7
20260505215348 54 0.0 0.0 0.00 0.00 0.00 80 1011.8
20260505214334 54 0.0 0.0 0.00 0.00 0.00 80 1011.8
20260505213320 54 0.0 0.0 0.00 0.00 0.00 79 1011.8
20260505212306 54 0.0 0.0 0.00 0.00 0.00 80 1011.7
20260505211251 55 0.0 0.0 0.00 0.00 0.00 79 1011.7
20260505210237 55 0.0 0.0 0.00 0.00 0.00 80 1011.7
20260505205223 55 0.0 0.0 0.00 0.00 0.00 80 1011.7
20260505204209 55 0.0 0.0 0.00 0.00 0.00 79 1011.7
20260505203155 55 0.0 0.0 0.00 0.00 0.00 78 1011.7
20260505202141 55 0.0 0.0 0.00 0.00 0.00 77 1011.7
20260505201126 56 0.0 0.0 0.00 0.00 0.00 76 1011.6
20260505200112 56 0.0 0.0 0.00 0.00 0.00 77 1011.5
20260505195058 56 0.0 0.0 0.00 0.00 0.00 76 1011.4
20260505194044 56 0.0 0.0 0.00 0.00 0.00 75 1011.3
20260505193030 56 0.0 0.0 0.00 0.00 0.00 75 1011.2
20260505192015 57 0.0 0.0 0.00 0.00 0.00 75 1011.2
20260505191001 57 0.0 0.0 0.00 0.00 0.00 74 1011.2
20260505185946 57 0.0 0.0 0.00 0.00 0.00 74 1011.1
20260505184932 58 0.0 0.0 0.00 0.00 0.00 73 1011.1
20260505183918 58 0.0 0.0 0.00 0.00 0.00 73 1011.1
20260505182904 58 0.0 0.0 0.00 0.00 0.00 72 1011.1
20260505181850 58 0.0 0.0 0.00 0.00 0.00 72 1011.0
20260505180836 58 0.0 0.0 0.00 0.00 0.00 72 1011.1
20260505175821 59 0.0 0.0 0.00 0.00 0.00 72 1011.1
20260505174807 59 0.0 0.0 0.00 0.00 0.00 70 1011.1
20260505173753 59 0.0 0.0 0.00 0.00 0.00 70 1011.0
20260505172739 60 0.0 0.0 0.00 0.00 0.00 68 1011.0
20260505170709 61 0.0 0.0 0.00 0.00 0.00 67 1010.9
20260505165655 61 0.0 0.0 0.00 0.00 0.00 66 1011.0
20260505164640 61 0.0 0.0 0.00 0.00 0.00 65 1010.9
20260505163626 62 0.0 0.0 0.00 0.00 0.00 65 1010.9
20260505162612 62 0.0 0.0 0.00 0.00 0.00 65 1010.8
20260505161557 62 0.0 0.0 0.00 0.00 0.00 65 1010.8
20260505160543 63 0.0 0.0 0.00 0.00 0.00 65 1010.7